Starlink 34783

operational
NORAD ID: 66337 Int'l Des: 2025-253 Owner: SPXS Country: US Constellation: starlink
NOTLE

About Starlink 34783

Description loading...

Live Position

Loading 3D Globe...

Upcoming Passes

Altitude History

Altitude vs Time

uPlot chart will show altitude changes over time

Two-Line Element Set

1 66337U 25253U 26041.25418855 .00031366 00000-0 11434-2 0 9997
2 66337 43.0005 7.8749 0002055 255.0899 104.9725 15.27609539 16040
Epoch: Feb 10, 2026 • Age: 9 hours

Current Status

Altitude 482.0 km
Velocity 7.63 km/s
Sub-Earth Point 8.77°N, 175.58°E
Launch Date Nov 6, 2025
Age 0.2 years
Type internet

Technical Details

Classification Payload
Mass 575.00 kg
Dry Mass 530.00 kg
Total Mass 575.00 kg
Length 0.30 m
Diameter 4.10 m
Span 29.00 m
Shape Box + pan
Manufacturer SPXS
Bus Type Starlink V2MO
Phase Status In Orbit
Owner/State SPXS/US

Large Constellations

Loading constellations...